Weather History for KLHX - October, 2012

Change the Weather History Date:

Sunday, October 7, 2012

  Actual Average Record
Temperature  
Mean Temperature 46 °F 58 °F  
Max Temperature 55 °F 73 °F 92 °F (1956)
Min Temperature 36 °F 42 °F 27 °F (1970)
Degree Days  
Heating Degree Days 19 8  
Month to date heating degree days 86 49  
Since 1 July heating degree days 116 122  
Cooling Degree Days 0 1  
Month to date cooling degree days 3 7  
Year to date cooling degree days 1733 1223  
Moisture  
Dew Point 33 °F    
Average Humidity 62    
Maximum Humidity 92    
Minimum Humidity 32    
Precipitation  
Precipitation 0.00 in 0.03 in 0.58 in (1946)
Month to date precipitation 0.03 0.19  
Year to date precipitation 5.29 10.10  
Sea Level Pressure  
Sea Level Pressure 30.17 in    
Wind  
Wind Speed 4 mph (SW)    
Max Wind Speed 13 mph    
Max Gust Speed 17 mph    
Visibility 10 miles    
Events      
T = Trace of Precipitation, MM = Missing Value Source: NWS Daily Summary

Daily Weather History Graph

Daily Weather History Graph

Search for Another Location

Airport or City:

Trip Planner

Search our weather history database for the weather conditions in past years. The results will help you decide how hot, cold, wet, or windy it might be!

Date:

Astronomy

Oct. 07, 2012 Rise Set
Actual Time 6:55 AM MDT 6:27 PM MDT
Civil Twilight 6:29 AM MDT 6:53 PM MDT
Nautical Twilight 5:58 AM MDT 7:23 PM MDT
Astronomical Twilight 5:28 AM MDT 7:54 PM MDT
Moon 11:44 PM MDT (10/7) 1:30 PM MDT (10/7)
Length of Visible Light 12h 24m
Length of Day
11h 31m
Waning Gibbous, 55% of the Moon is Illuminated
Oct 7
Waning Gibbous
Oct 8
Last Quarter
Oct 15
New
Oct 21
First Quarter
Oct 29
Full

Hourly Weather History & Observations

Time (MDT) Temp. Windchill Dew Point Humidity Pressure Visibility Wind Dir Wind Speed Gust Speed Precip Events Conditions
12:17 AM 37.4 °F - 33.8 °F 87% 30.27 in 10.0 mi Calm Calm - N/A   Overcast
12:53 AM 37.9 °F 35.5 °F 34.0 °F 86% 30.26 in 10.0 mi SSW 3.5 mph - N/A   Overcast
1:20 AM 37.4 °F 32.1 °F 33.8 °F 87% 30.25 in 10.0 mi SW 6.9 mph - N/A   Overcast
1:53 AM 37.0 °F 33.3 °F 34.0 °F 89% 30.25 in 10.0 mi SSW 4.6 mph - N/A   Overcast
2:06 AM 37.4 °F 33.8 °F 33.8 °F 87% 30.25 in 10.0 mi SW 4.6 mph - N/A   Overcast
2:13 AM 37.4 °F 34.9 °F 33.8 °F 87% 30.24 in 10.0 mi WSW 3.5 mph - N/A   Overcast
2:24 AM 37.4 °F 34.9 °F 33.8 °F 87% 30.24 in 10.0 mi SW 3.5 mph - N/A   Overcast
2:53 AM 37.0 °F 33.3 °F 34.0 °F 89% 30.21 in 10.0 mi SSW 4.6 mph - N/A   Overcast
3:07 AM 37.4 °F 32.8 °F 33.8 °F 87% 30.22 in 10.0 mi SSW 5.8 mph - N/A   Overcast
3:16 AM 37.4 °F 31.4 °F 33.8 °F 87% 30.22 in 10.0 mi SW 8.1 mph - N/A   Overcast
3:53 AM 37.0 °F 32.4 °F 34.0 °F 89% 30.20 in 10.0 mi SW 5.8 mph - N/A   Overcast
4:07 AM 37.4 °F 31.4 °F 33.8 °F 87% 30.21 in 10.0 mi SW 8.1 mph - N/A   Overcast
4:53 AM 37.0 °F 32.4 °F 34.0 °F 89% 30.19 in 10.0 mi WSW 5.8 mph - N/A   Overcast
5:53 AM 37.9 °F - 34.0 °F 86% 30.19 in 10.0 mi Calm Calm - N/A   Overcast
6:44 AM 37.4 °F - 35.6 °F 93% 30.19 in 10.0 mi Calm Calm - N/A   Overcast
6:53 AM 37.9 °F - 35.1 °F 89% 30.18 in 10.0 mi Calm Calm - N/A   Overcast
7:53 AM 39.0 °F - 34.0 °F 82% 30.21 in 10.0 mi Calm Calm - N/A   Overcast
8:00 AM 39.2 °F - 33.8 °F 81% 30.21 in 10.0 mi Calm Calm - N/A   Overcast
8:53 AM 39.9 °F - 35.1 °F 83% 30.22 in 10.0 mi Calm Calm - N/A   Overcast
9:53 AM 41.0 °F - 36.0 °F 82% 30.22 in 10.0 mi Calm Calm - N/A   Overcast
10:05 AM 42.8 °F - 35.6 °F 76% 30.21 in 10.0 mi Calm Calm - N/A   Overcast
10:27 AM 42.8 °F - 35.6 °F 76% 30.21 in 10.0 mi Calm Calm - N/A   Overcast
10:53 AM 43.0 °F 41.3 °F 34.0 °F 71% 30.20 in 10.0 mi WNW 3.5 mph - N/A   Overcast
11:44 AM 44.6 °F 43.1 °F 33.8 °F 66% 30.19 in 10.0 mi Variable 3.5 mph - N/A   Overcast
11:53 AM 46.0 °F 43.9 °F 35.1 °F 66% 30.17 in 10.0 mi Variable 4.6 mph - N/A   Overcast
12:15 PM 46.4 °F 41.9 °F 33.8 °F 62% 30.18 in 10.0 mi WSW 9.2 mph - N/A   Mostly Cloudy
12:37 PM 50.0 °F - 33.8 °F 54% 30.17 in 10.0 mi SW 8.1 mph - N/A   Overcast
12:53 PM 50.0 °F - 34.0 °F 54% 30.13 in 10.0 mi Variable 4.6 mph 17.3 mph N/A   Mostly Cloudy
1:53 PM 51.1 °F - 32.0 °F 48% 30.09 in 10.0 mi Calm Calm - N/A   Clear
2:53 PM 53.1 °F - 28.9 °F 40% 30.07 in 10.0 mi NNW 4.6 mph - N/A   Clear
3:53 PM 54.0 °F - 28.0 °F 37% 30.04 in 10.0 mi NNW 3.5 mph - N/A   Clear
4:53 PM 55.0 °F - 27.0 °F 34% 30.03 in 10.0 mi ESE 6.9 mph - N/A   Clear
5:53 PM 53.1 °F - 28.0 °F 38% 30.03 in 10.0 mi South 5.8 mph - N/A   Clear
6:53 PM 48.9 °F - 28.9 °F 46% 30.05 in 10.0 mi SSE 4.6 mph - N/A   Clear
7:53 PM 48.0 °F - 28.0 °F 46% 30.06 in 10.0 mi South 4.6 mph - N/A   Clear
8:53 PM 45.0 °F 42.6 °F 28.9 °F 53% 30.07 in 10.0 mi SSW 4.6 mph - N/A   Clear
9:53 PM 46.0 °F 44.8 °F 26.1 °F 46% 30.06 in 10.0 mi SSW 3.5 mph - N/A   Clear
10:53 PM 42.1 °F 37.1 °F 27.0 °F 55% 30.06 in 10.0 mi SSW 8.1 mph - N/A   Clear
11:53 PM 39.9 °F 35.8 °F 26.1 °F 58% 30.06 in 10.0 mi SW 5.8 mph - N/A   Clear